Regional Weather Roundup
Issued by NWS Midland/Odessa, TX

Skip options and go directly to product.
Home | Oldest Version | Next Version | Current Version | All | Text Only | Save Text | Print | Product List | Glossary On

Skip product version selection by date and time.   
709
ASUS44 KMAF 230202
RWRMAF
MIDLAND AREA WEATHER ROUNDUP
NATIONAL WEATHER SERVICE MIDLAND TX
900 PM CDT TUE APR 22 2014

...IN SOUTHWEST TEXAS AND SOUTHEAST NEW MEXICO...

CITY           SKY/WX    TMP DP  RH WIND       PRES   REMARKS
ALPINE         PTCLDY    75  42  30 SE13      30.03R
ANDREWS        FAIR      77  41  27 SE10      29.92F
ARTESIA        PTCLDY    79  41  25 SE18G26   29.86F
BIG SPRING     CLEAR     79  38  23 SE9       29.95S
CARLSBAD       CLEAR     77  44  30 SE13      29.86S
DRYDEN           N/A     84  43  23 E10       29.89R
FORT STOCKTON  CLEAR     79  43  27 SE12      29.92S
GUAD PASS      CLEAR     68  40  35 E22       30.00F
HOBBS          CLEAR     75  43  31 S16       29.93R
MARFA          CLEAR     72  37  28 E14       30.00S
MIDLAND AIRPK  CLEAR     81  39  21 SE10      29.93S
MIDLAND INTL   CLEAR     79  42  26 SE14      29.91F
ODESSA           N/A    N/A N/A N/A MISG      29.92S
PECOS          CLEAR     70  54  57 E9        29.86S
PRESIDIO       FAIR      87  32  14 E12       29.81F
SEMINOLE       CLEAR     77  39  25 SE10      29.93F
SNYDER         CLEAR     78  37  22 SE10      29.95R
WINK           CLOUDY    78  47  33 SE8       29.86F
$$
...OTHER STATIONS IN TEXAS...

CITY           SKY/WX    TMP DP  RH WIND       PRES   REMARKS
ABILENE        CLEAR     73  46  38 SE10      29.95R
AMARILLO       CLEAR     74  37  26 S20       29.91S
AUSTIN         CLEAR     68  59  73 NE3       29.92R
BROWNSVILLE    CLEAR     73  67  81 SE9       29.93R
CORPUS CHRISTI PTCLDY    75  67  76 SE12      29.91R
DALLAS FTW     CLEAR     71  54  54 NE7       29.93R
DEL RIO        CLEAR     86  51  29 SE7       29.85R
EL PASO        MOCLDY    84  29  13 SE15      29.80S
HOUSTON INT    PTCLDY    71  60  68 CALM      29.91R
LUBBOCK        PTCLDY    74  34  23 SE14      29.93S
SAN ANGELO     CLEAR     76  42  29 E8        29.93R
SAN ANTONIO    CLEAR     79  55  43 E5        29.92R
WACO           CLEAR     71  57  61 E6        29.93R
WICHITA FALLS  NOT AVBL
$$
...OTHER LOCATIONS IN NEW MEXICO...

CITY           SKY/WX    TMP DP  RH WIND       PRES   REMARKS
ALAMAGORDO     PTCLDY    81  32  17 S14       29.84S
ALBUQUERQUE    MOCLDY    75  29  18 S17       29.86F
CANNON AFB     PTCLDY    72  41  32 S14       29.92S
CLOVIS         PTCLDY    70  39  32 S15       29.95S
HOLLOMAN AFB   PTCLDY    79  34  19 S9        29.82S
ROSWELL        PTCLDY    79  40  24 S16       29.85F
RUIDOSO        PTCLDY    64  32  29 S15G22    30.05S
SANTA FE       MOCLDY    68  28  22 S8        29.92S
TRUTH OR CONSE MOCLDY    78  22  12 SW9       29.84S
TUCUMCARI      PTCLDY    71  44  37 S14       29.86S
$$

USA.gov is the U.S. government's official web portal to all federal, state and local government web resources and services.